This demonstration page uses our WeatherBlox Daily Observations layout. Learn more.

Hourly Observations for August 1, 2017

Temp ( °F °C ) Dew Point ( °F °C ) Humidity (%) Winds ( mph kmh ) Pressure ( in mb ) Visibility ( mi km ) Precip ( " mm )
12:15 am 00:15 Partly Cloudy 67 19.5 64 17.6 89 89 SSE 7 11 30.09 1019 10 16.09344 0 0
12:35 am 00:35 Mostly Cloudy 67 19.5 64 17.6 89 89 S 6 9 30.09 1019 10 16.09344 0 0
12:55 am 00:55 Mostly Cloudy 67 19.5 64 17.6 89 89 S 6 9 30.09 1019 10 16.09344 0 0
1:15 am 01:15 Mostly Cloudy 67 19.4 64 17.6 89 89 S 6 9 30.09 1019 10 16.09344 0 0
1:35 am 01:35 Partly Cloudy 67 19.2 64 17.5 90 90 S 6 9 30.09 1019 10 16.09344 0 0
1:55 am 01:55 Mostly Cloudy 66 19.1 64 17.5 91 91 S 7 11 30.09 1019 10 16.09344 0 0
2:15 am 02:15 Mostly Cloudy 66 19 64 17.6 92 92 SSE 3 6 30.09 1019 10 16.09344 0 0
2:35 am 02:35 Mostly Cloudy 66 19 64 17.5 91 91 SSE 5 7 30.09 1019 7 11.265408 0 0
2:55 am 02:55 Mostly Cloudy 66 19 64 17.5 91 91 SSW 6 9 30.06 1018 7 11.265408 0 0
3:15 am 03:15 Mostly Cloudy 65 18.6 63 17.4 93 93 ESE 3 6 30.09 1019 7 11.265408 0 0
3:35 am 03:35 Partly Cloudy 65 18.6 63 17.3 92 92 ESE 5 7 30.09 1019 7 11.265408 0 0
3:55 am 03:55 Partly Cloudy 65 18.5 63 17.2 92 92 S 5 7 30.06 1018 7 11.265408 0 0
4:15 am 04:15 Partly Cloudy with Mist and Fog 65 18.1 63 17 93 93 Calm 30.06 1018 5 8.04672 0 0
4:35 am 04:35 Partly Cloudy with Mist and Fog 64 17.8 62 16.8 94 94 SE 5 7 30.06 1018 4 6.437376 0 0
4:55 am 04:55 Partly Cloudy with Mist and Fog 64 18 63 17 94 94 SSE 5 7 30.06 1018 4 6.437376 0 0
5:15 am 05:15 Clear with Mist and Fog 64 17.7 62 16.7 94 94 SSE 3 6 30.06 1018 4 6.437376 0 0
5:35 am 05:35 Clear with Mist and Fog 64 17.5 62 16.6 95 95 SSE 3 6 30.09 1019 3 4.828032 0 0
5:55 am 05:55 Clear with Mist and Fog 64 17.5 62 16.6 95 95 SE 3 6 30.09 1019 4 6.437376 0 0
6:15 am 06:15 Clear with Mist and Fog 64 17.5 62 16.6 95 95 Calm 30.09 1019 3 4.828032 0 0
6:35 am 06:35 Clear with Mist and Fog 63 17 61 16.1 94 94 Calm 30.09 1019 2 3.218688 0 0
6:55 am 06:55 Mostly Cloudy with Fog 63 17 61 16.1 94 94 Calm 30.09 1019 0.5 0.804672 0 0
7:15 am 07:15 Mostly Cloudy with Mist and Fog 62 16.4 60 15.5 94 94 Calm 30.09 1019 1.25 2.01168 0 0
7:35 am 07:35 Mostly Cloudy with Mist and Fog 62 16.8 61 16 95 95 Calm 30.09 1019 1.25 2.01168 0 0
7:55 am 07:55 Mostly Cloudy with Mist and Fog 63 17.4 62 16.6 95 95 Calm 30.12 1020 1.5 2.414016 0 0
8:15 am 08:15 Mostly Cloudy with Mist and Fog 65 18.4 64 17.5 95 95 Calm 30.09 1019 2.5 4.02336 0 0
8:35 am 08:35 Cloudy with Mist and Fog 66 18.7 64 17.8 95 95 Calm 30.09 1019 2.5 4.02336 0 0
8:55 am 08:55 Cloudy with Mist and Fog 66 18.7 64 17.7 94 94 Calm 30.09 1019 1.75 2.816352 0 0
9:15 am 09:15 Cloudy with Mist and Fog 66 19 64 18 94 94 Calm 30.09 1019 2 3.218688 0 0
9:35 am 09:35 Cloudy with Mist and Fog 66 19 64 17.9 93 93 Calm 30.09 1019 3 4.828032 0 0
9:55 am 09:55 Cloudy with Mist and Fog 67 19.3 64 18 92 92 Calm 30.09 1019 4 6.437376 0 0
10:15 am 10:15 Cloudy with Mist and Fog 69 20.7 65 18.5 87 87 SSW 3 6 30.09 1019 5 8.04672 0.01 0.254
10:35 am 10:35 Cloudy 70 21.3 65 18.5 84 84 Calm 30.09 1019 7 11.265408 0.01 0.254
10:55 am 10:55 Partly Cloudy 73 22.6 67 19.3 82 82 Calm 30.06 1018 7 11.265408 0.01 0.254
11:15 am 11:15 Sunny 74 23.1 67 19.3 79 79 S 3 6 30.06 1018 10 16.09344 0 0
11:35 am 11:35 Sunny 76 24.3 68 20.1 77 77 S 3 6 30.06 1018 10 16.09344 0 0
11:55 am 11:55 Partly Cloudy 76 24.6 68 19.9 75 75 SSW 3 6 30.06 1018 10 16.09344 0 0
12:15 pm 12:15 Partly Cloudy 77 25.1 68 20.2 74 74 ESE 3 6 30.03 1017 10 16.09344 0 0
12:35 pm 12:35 Partly Cloudy 79 26 68 19.9 69 69 SE 6 9 30.03 1017 10 16.09344 0 0
12:55 pm 12:55 Partly Cloudy 79 26.2 67 19.6 67 67 ESE 3 6 30.03 1017 10 16.09344 0 0
1:15 pm 13:15 Mostly Cloudy 80 26.8 66 19 62 62 SE 5 7 30.03 1017 10 16.09344 0 0
1:35 pm 13:35 Mostly Cloudy 80 26.5 67 19.7 66 66 ESE 3 6 30.03 1017 10 16.09344 0 0
1:55 pm 13:55 Mostly Cloudy 80 26.8 67 19.7 65 65 SE 5 7 30.03 1017 10 16.09344 0 0
2:15 pm 14:15 Mostly Cloudy 82 27.9 67 19.3 60 60 SE 3 6 30.03 1017 10 16.09344 0 0
2:35 pm 14:35 Partly Cloudy 82 28 65 18.6 57 57 S 6 9 30.03 1017 10 16.09344 0 0
2:55 pm 14:55 Mostly Cloudy 83 28.5 65 18.5 55 55 SW 5 7 29.97 1015 10 16.09344 0 0
3:15 pm 15:15 Partly Cloudy 84 28.9 65 18.3 53 53 SSE 6 9 29.97 1015 10 16.09344 0 0
3:35 pm 15:35 Sunny 85 29.2 65 18.1 51 51 Calm 29.97 1015 10 16.09344 0 0
3:55 pm 15:55 Sunny 85 29.5 64 17.7 49 49 SSW 6 9 29.97 1015 10 16.09344 0 0
4:15 pm 16:15 Sunny 85 29.6 63 17.2 47 47 Calm 29.97 1015 10 16.09344 0 0
4:35 pm 16:35 Sunny 85 29.6 63 17.3 48 48 SSE 5 7 29.97 1015 10 16.09344 0 0
4:55 pm 16:55 Sunny 86 29.8 63 17.1 46 46 ESE 9 15 29.94 1014 10 16.09344 0 0
5:15 pm 17:15 Sunny 85 29.7 63 17.2 47 47 SE 7 11 29.94 1014 10 16.09344 0 0
5:35 pm 17:35 Sunny 85 29.6 63 17.2 47 47 SE 8 13 29.94 1014 10 16.09344 0 0
5:55 pm 17:55 Sunny 85 29.7 64 17.6 48 48 SE 6 9 29.94 1014 10 16.09344 0 0
6:15 pm 18:15 Sunny 85 29.3 64 17.6 49 49 SSE 8 13 29.94 1014 10 16.09344 0 0
6:35 pm 18:35 Sunny 85 29.2 64 17.9 51 51 SE 8 13 29.94 1014 10 16.09344 0 0
6:55 pm 18:55 Sunny 84 28.9 65 18.6 54 54 SSE 8 13 29.94 1014 10 16.09344 0 0
7:15 pm 19:15 Sunny 82 28 66 19.1 58 58 SSE 9 15 29.94 1014 10 16.09344 0 0
7:35 pm 19:35 Sunny 81 27.1 66 18.9 61 61 SSE 8 13 30 1016 10 16.09344 0 0
7:55 pm 19:55 Sunny 80 26.5 65 18.6 62 62 ESE 8 13 30 1016 10 16.09344 0 0
8:15 pm 20:15 Partly Cloudy 80 26.4 66 18.8 63 63 SE 7 11 30.03 1017 10 16.09344 0 0
8:35 pm 20:35 Mostly Cloudy 78 25.7 66 19.1 67 67 E 3 6 30.03 1017 10 16.09344 0 0
8:55 pm 20:55 Partly Cloudy with Nearby Thunderstorms 74 23.5 65 18.2 72 72 ENE 8 13 30.06 1018 10 16.09344 0 0
9:15 pm 21:15 Clear with Thunderstorms 73 22.5 64 17.7 74 74 ENE 5 7 30.06 1018 10 16.09344 0 0
9:35 pm 21:35 Clear with Nearby Thunderstorms 72 22 64 18 78 78 NNW 14 22 30.09 1019 10 16.09344 0 0
9:55 pm 21:55 Mostly Cloudy with Thunderstorms 71 21.5 60 15.5 69 69 N 12 19 30.15 1021 10 16.09344 0 0
10:15 pm 22:15 Mostly Cloudy with Nearby Thunderstorms 68 19.9 57 13.8 68 68 NNW 12 19 30.18 1022 10 16.09344 0 0
10:35 pm 22:35 Partly Cloudy with Nearby Thunderstorms 66 19.1 58 14.5 75 75 NW 10 17 30.15 1021 10 16.09344 0 0
10:55 pm 22:55 Mostly Cloudy with Light Rain 65 18.4 60 15.6 84 84 W 8 13 30.18 1022 10 16.09344 0 0
11:15 pm 23:15 Partly Cloudy with Light Drizzle 65 18.6 60 15.5 82 82 W 14 22 30.12 1020 10 16.09344 0 0
11:35 pm 23:35 Clear 65 18.5 60 15.5 83 83 S 8 13 30.09 1019 10 16.09344 0 0
11:55 pm 23:55 Clear 65 18.6 60 15.3 81 81 S 7 11 30.06 1018 10 16.09344 0 0

Powered by AerisWeather